Flag for U.S.A. Weather past 2 weeks in Minot, North Dakota, U.S.A.

Now
64 °F

Light rain. Fog.


Feels Like: 64 °F
Forecast: 61 / 74 °F
Wind: 8 mph from North

Location: Minot International Airport

Current Time: Jul 5, 2015 at 10:01:07 AM

Latest Report: Jul 5, 2015 at 8:54 AM


Visibility: 4 mi

Pressure: 29.81 "Hg

Humidity: 94%

Dew point: 62 °F

Location of MinotLocation

Historic Weather in Minot — Graph

°F

Minot temperature yesterday

Maximum temperature yesterday: 88 °F (at 3:54 PM)
Minimum temperature yesterday: 63 °F (at 4:54 AM)
Average temperature yesterday: 74 °F

Past Weeks' High & Low Weather Summary

 TemperatureHumidityPressure
High89 °F (Jun 29, 4:54 PM)97% (Jul 1, 3:54 AM)30.12 "Hg (Jul 1, 3:54 AM)
Low53 °F (Jun 21, 5:54 AM)31% (Jun 23, 3:54 PM)29.63 "Hg (Jul 4, 6:54 PM)
Average69 °F69%29.92 "Hg
* Reported Jun 20 8:54 AM — Jul 5 8:54 AM, Minot, Weather by CustomWeather, © 2015

Note: Actual official high and low records may vary slightly from our data, if they occured in-between our weather recording intervals... More about our weather records

Advertising

Minot weather history for previous 24 hours

 ConditionsComfort  
Time TempWeatherWind HumidityBarometerVisibility
8:54 AM
Sun, Jul 5
64 °FLight rain. Fog.8 mph94%29.81 "Hg4 mi
8:01 AM64 °FThundershowers. Fog.9 mph94%29.88 "Hg3 mi
6:54 AM64 °FOvercast.10 mph90%29.78 "Hg8 mi
5:54 AM63 °FPassing clouds.12 mph90%29.76 "Hg8 mi
4:54 AM62 °FFog.9 mph93%29.74 "Hg5 mi
3:54 AM63 °FFog.7 mph93%29.72 "Hg6 mi
2:54 AM61 °FFog.7 mph93%29.73 "Hg5 mi
1:54 AM62 °FFog.3 mph93%29.75 "Hg4 mi
12:54 AM63 °FFog.3 mph93%29.73 "Hg6 mi
11:54 PM
Sat, Jul 4
66 °FClear.10 mph87%29.72 "Hg10 mi
10:54 PM68 °FThundershowers. Partly cloudy.7 mph82%29.70 "Hg8 mi
9:54 PM70 °FThunderstorms. Partly sunny.15 mph71%29.72 "Hg8 mi
8:54 PM69 °FPassing clouds.6 mph87%29.71 "Hg10 mi
8:01 PM73 °FThunderstorms. Partly sunny.18 mph79%29.74 "Hg7 mi
6:54 PM78 °FBroken clouds.3 mph79%29.63 "Hg6 mi
5:54 PM83 °FSunny.7 mph63%29.66 "Hg6 mi
4:54 PM85 °FSunny.14 mph53%29.65 "Hg7 mi
3:54 PM88 °FSunny.14 mph48%29.67 "Hg6 mi
2:54 PM87 °FSunny.16 mph48%29.68 "Hg6 mi
1:54 PM86 °FSunny.17 mph48%29.70 "Hg5 mi
12:54 PM85 °FSunny.14 mph50%29.70 "Hg5 mi
11:54 AM82 °FSunny.15 mph51%29.72 "Hg4 mi
10:54 AM80 °FSunny.10 mph54%29.73 "Hg4 mi
Weather by CustomWeather, © 2015

See weather overviewHow to use our weather pages